Airfield :
LOGIN :

Register | Disclaimer

   EN    FR    IT 

 










Legend :    VFR   Marginal VFR   IFR   Intensive IFR   Very Intensive IFR
Visi :
Ceiling :
>= 8 km
>= 3000ft
5 to 8 km
1000 to 3000 ft
1500m to 5 km
500 to 1000 ft
800 to 1500m
200 to 500 ft
< 800m
< 200 ft
Symbols :   Thunderstorms  Fog  Heavy snow  Heavy precipitations  Wind > 20 kt
SIGMETs :     Misc.  Thunderstorms  Icing  Turbulence  Mountain Waves  Volcanic Ashes







- Airport Elevation : 23 ft
- IATA code : XFW


EDHI - Hamburg Finkenwerder

CURRENT METAR :
  • 210320Z AUTO 19008KT 160V220 9999 // BKN210/// BKN240/// 20/10 Q1004

EXPIRED METARs :
  • 210250Z AUTO 20009KT 9999 // BKN210/// 19/10 Q1005
  • 210220Z AUTO 19008KT 9999 // SCT220/// 19/10 Q1005
  • 210150Z AUTO 20011KT 9999 // SCT230/// 19/10 Q1006
  • 210120Z AUTO 20008KT 160V230 9999 // SCT240/// 19/11 Q1006
  • 210050Z AUTO 15003KT 120V190 9999 // BKN190/// 17/11 Q1006

Expired Forecast.
No reported NOTAMs for that airfield.



MET'MAP, your aeronautical weather chart ! - Copyright ORBIFLY December 2007 - Disclaimer

ORBIFLY MET'MAP TEAM :

Programming & Development : Alexandra Zaïnal
Concept & Development : Baudouin d'Aumeries
Co-Development & Prog : Marc-Olivier Méhu
Technical & hardware support : Manuel Goepfert

Contact : metmap@orbifly.com




SOURCES & CREDITS :

   NOAA